,,Stat6,,Stat2,,Stat8,,Stat9,,Stat10,,Wind1,,Wind1,
time,status,PA1M_AVG,status,PR1M_SUM,status,RH1M_AVG,status,SR1M_AVG,status,TA1M_AVG,status,W1dAve1m,status,W1sAve1m,
2008-07-23, 00:00:00,VALID,918.008,VALID,0,VALID,100,VALID,-0.101885,VALID,19.1697,VALID,4,VALID,0.69455,
2008-07-23, 00:01:00,VALID,918.018,VALID,0,VALID,100,VALID,-0.0849042,VALID,19.1834,VALID,344,VALID,0.851017,
2008-07-23, 00:02:00,VALID,918.024,VALID,0,VALID,100,VALID,-0.118866,VALID,19.1669,VALID,3,VALID,0.412695,
2008-07-23, 00:03:00,VALID,918.015,VALID,0,VALID,100,VALID,-0.118866,VALID,19.1861,VALID,13,VALID,0,
2008-07-23, 00:04:00,VALID,918.019,VALID,0,VALID,100,VALID,-0.152827,VALID,19.2058,VALID,13,VALID,0,
2008-07-23, 00:05:00,VALID,918.006,VALID,0,VALID,100,VALID,-0.101885,VALID,19.2026,VALID,12,VALID,0,
2008-07-23, 00:06:00,VALID,918.025,VALID,0,VALID,100,VALID,-0.118866,VALID,19.2221,VALID,328,VALID,0,
2008-07-23, 00:07:00,VALID,918.014,VALID,0,VALID,100,VALID,-0.118866,VALID,19.232,VALID,348,VALID,0,
2008-07-23, 00:08:00,VALID,917.988,VALID,0,VALID,100,VALID,-0.135847,VALID,19.2385,VALID,8,VALID,0,
2008-07-23, 00:09:00,VALID,917.961,VALID,0,VALID,100,VALID,-0.118866,VALID,19.2253,VALID,8,VALID,0,
2008-07-23, 00:10:00,VALID,917.924,VALID,0,VALID,100,VALID,-0.101885,VALID,19.2318,VALID,16,VALID,0,
2008-07-23, 00:11:00,VALID,917.906,VALID,0,VALID,100,VALID,-0.118866,VALID,19.235,VALID,19,VALID,0,
2008-07-23, 00:12:00,VALID,917.873,VALID,0,VALID,100,VALID,-0.101885,VALID,19.235,VALID,12,VALID,0,
2008-07-23, 00:13:00,VALID,917.846,VALID,0,VALID,100,VALID,-0.101885,VALID,19.2255,VALID,10,VALID,0,
2008-07-23, 00:14:00,VALID,917.809,VALID,0,VALID,100,VALID,-0.118866,VALID,19.2021,VALID,12,VALID,0,
2008-07-23, 00:15:00,VALID,917.794,VALID,0,VALID,100,VALID,-0.0849042,VALID,19.1929,VALID,12,VALID,0,
2008-07-23, 00:16:00,VALID,917.784,VALID,0,VALID,100,VALID,-0.101885,VALID,19.1991,VALID,13,VALID,0,
2008-07-23, 00:17:00,VALID,917.782,VALID,0,VALID,100,VALID,-0.0679233,VALID,19.2016,VALID,14,VALID,0,
2008-07-23, 00:18:00,VALID,917.783,VALID,0,VALID,100,VALID,-0.101885,VALID,19.2086,VALID,1,VALID,0,
2008-07-23, 00:19:00,VALID,917.774,VALID,0,VALID,100,VALID,-0.152827,VALID,19.2093,VALID,208,VALID,0,
2008-07-23, 00:20:00,VALID,917.781,VALID,0,VALID,100,VALID,-0.101885,VALID,19.2026,VALID,208,VALID,0,
2008-07-23, 00:21:00,VALID,917.796,VALID,0,VALID,100,VALID,-0.0849042,VALID,19.1991,VALID,208,VALID,0,
2008-07-23, 00:22:00,VALID,917.798,VALID,0,VALID,100,VALID,-0.101885,VALID,19.1961,VALID,208,VALID,0,
2008-07-23, 00:23:00,VALID,917.818,VALID,0,VALID,100,VALID,-0.0849042,VALID,19.1759,VALID,208,VALID,0,
2008-07-23, 00:24:00,VALID,917.828,VALID,0,VALID,100,VALID,-0.118866,VALID,19.1864,VALID,208,VALID,0,
2008-07-23, 00:25:00,VALID,917.858,VALID,0,VALID,100,VALID,-0.118866,VALID,19.1996,VALID,208,VALID,0,
2008-07-23, 00:26:00,VALID,917.858,VALID,0,VALID,100,VALID,-0.101885,VALID,19.1861,VALID,208,VALID,0,
2008-07-23, 00:27:00,VALID,917.863,VALID,0,VALID,100,VALID,-0.118866,VALID,19.1539,VALID,208,VALID,0,
2008-07-23, 00:28:00,VALID,917.868,VALID,0,VALID,100,VALID,-0.118866,VALID,19.118,VALID,208,VALID,0,
2008-07-23, 00:29:00,VALID,917.868,VALID,0,VALID,100,VALID,-0.101885,VALID,19.1055,VALID,208,VALID,0,
2008-07-23, 00:30:00,VALID,917.875,VALID,0,VALID,100,VALID,-0.152827,VALID,19.0953,VALID,208,VALID,0,
2008-07-23, 00:31:00,VALID,917.869,VALID,0,VALID,100,VALID,-0.101885,VALID,19.0988,VALID,208,VALID,0,
2008-07-23, 00:32:00,VALID,917.84,VALID,0,VALID,100,VALID,-0.118866,VALID,19.115,VALID,208,VALID,0,
2008-07-23, 00:33:00,VALID,917.83,VALID,0,VALID,100,VALID,-0.101885,VALID,19.1053,VALID,208,VALID,0,
2008-07-23, 00:34:00,VALID,917.836,VALID,0,VALID,100,VALID,-0.118866,VALID,19.1217,VALID,209,VALID,0,
2008-07-23, 00:35:00,VALID,917.831,VALID,0,VALID,100,VALID,-0.135847,VALID,19.0988,VALID,214,VALID,0,
2008-07-23, 00:36:00,VALID,917.817,VALID,0,VALID,100,VALID,-0.0849042,VALID,19.0955,VALID,216,VALID,0,
2008-07-23, 00:37:00,VALID,917.781,VALID,0,VALID,100,VALID,-0.0849042,VALID,19.0825,VALID,216,VALID,0,
2008-07-23, 00:38:00,VALID,917.741,VALID,0,VALID,100,VALID,-0.0679233,VALID,19.0758,VALID,216,VALID,0,
2008-07-23, 00:39:00,VALID,917.71,VALID,0,VALID,100,VALID,-0.135847,VALID,19.0791,VALID,216,VALID,0,
2008-07-23, 00:40:00,VALID,917.699,VALID,0,VALID,100,VALID,-0.118866,VALID,19.0693,VALID,216,VALID,0,
2008-07-23, 00:41:00,VALID,917.7,VALID,0,VALID,100,VALID,-0.0849042,VALID,19.0758,VALID,216,VALID,0,
2008-07-23, 00:42:00,VALID,917.695,VALID,0,VALID,100,VALID,-0.118866,VALID,19.0691,VALID,216,VALID,0,
2008-07-23, 00:43:00,VALID,917.693,VALID,0,VALID,100,VALID,-0.101885,VALID,19.0821,VALID,216,VALID,0,
2008-07-23, 00:44:00,VALID,917.697,VALID,0,VALID,100,VALID,-0.101885,VALID,19.0923,VALID,216,VALID,0,
2008-07-23, 00:45:00,VALID,917.689,VALID,0,VALID,100,VALID,-0.0849042,VALID,19.0758,VALID,216,VALID,0,
2008-07-23, 00:46:00,VALID,917.662,VALID,0,VALID,100,VALID,-0.101885,VALID,19.0563,VALID,216,VALID,0,
2008-07-23, 00:47:00,VALID,917.622,VALID,0,VALID,100,VALID,-0.135847,VALID,19.0207,VALID,216,VALID,0,
2008-07-23, 00:48:00,VALID,917.597,VALID,0,VALID,100,VALID,-0.0849042,VALID,18.9655,VALID,216,VALID,0,
2008-07-23, 00:49:00,VALID,917.584,VALID,0,VALID,100,VALID,-0.118866,VALID,18.9495,VALID,216,VALID,0,
2008-07-23, 00:50:00,VALID,917.564,VALID,0,VALID,100,VALID,-0.118866,VALID,18.9488,VALID,216,VALID,0,
2008-07-23, 00:51:00,VALID,917.535,VALID,0,VALID,100,VALID,-0.118866,VALID,18.962,VALID,283,VALID,0,
2008-07-23, 00:52:00,VALID,917.535,VALID,0,VALID,100,VALID,-0.101885,VALID,18.9516,VALID,344,VALID,0,
2008-07-23, 00:53:00,VALID,917.516,VALID,0,VALID,100,VALID,-0.101885,VALID,18.943,VALID,344,VALID,0,
2008-07-23, 00:54:00,VALID,917.486,VALID,0,VALID,100,VALID,-0.152827,VALID,18.9203,VALID,355,VALID,0.571289,
2008-07-23, 00:55:00,VALID,917.474,VALID,0,VALID,100,VALID,-0.118866,VALID,18.8717,VALID,16,VALID,1.08899,
2008-07-23, 00:56:00,VALID,917.479,VALID,0,VALID,100,VALID,-0.0509425,VALID,18.8675,VALID,22,VALID,0.180618,
2008-07-23, 00:57:00,VALID,917.496,VALID,0,VALID,100,VALID,-0.0169808,VALID,18.8735,VALID,22,VALID,0,
2008-07-23, 00:58:00,VALID,917.533,VALID,0,VALID,100,VALID,-0.0679233,VALID,18.8997,VALID,22,VALID,0,
2008-07-23, 00:59:00,VALID,917.531,VALID,0,VALID,100,VALID,-0.0169808,VALID,18.9156,VALID,22,VALID,0,
2008-07-23, 01:00:00,VALID,917.541,VALID,0,VALID,100,VALID,-0.0679233,VALID,18.9286,VALID,22,VALID,0,
2008-07-23, 01:01:00,VALID,917.523,VALID,0,VALID,100,VALID,-0.0339617,VALID,18.9286,VALID,22,VALID,0,
2008-07-23, 01:02:00,VALID,917.519,VALID,0,VALID,100,VALID,-0.0339617,VALID,18.8897,VALID,22,VALID,0,
2008-07-23, 01:03:00,VALID,917.509,VALID,0,VALID,100,VALID,-0.0849042,VALID,18.8705,VALID,22,VALID,0,
2008-07-23, 01:04:00,VALID,917.489,VALID,0,VALID,100,VALID,0,VALID,18.8698,VALID,22,VALID,0,
2008-07-23, 01:05:00,VALID,917.461,VALID,0,VALID,100,VALID,-0.0169808,VALID,18.87,VALID,22,VALID,0,
2008-07-23, 01:06:00,VALID,917.44,VALID,0,VALID,100,VALID,-0.0339617,VALID,18.8832,VALID,22,VALID,0,
2008-07-23, 01:07:00,VALID,917.418,VALID,0,VALID,100,VALID,0,VALID,18.8767,VALID,22,VALID,0,
2008-07-23, 01:08:00,VALID,917.389,VALID,0,VALID,100,VALID,-0.0339617,VALID,18.8929,VALID,22,VALID,0,
2008-07-23, 01:09:00,VALID,917.394,VALID,0,VALID,100,VALID,-0.0509425,VALID,18.9029,VALID,22,VALID,0,
2008-07-23, 01:10:00,VALID,917.416,VALID,0,VALID,100,VALID,-0.0339617,VALID,18.902,VALID,22,VALID,0,
2008-07-23, 01:11:00,VALID,917.445,VALID,0,VALID,100,VALID,-0.0509425,VALID,18.9059,VALID,22,VALID,0,
2008-07-23, 01:12:00,VALID,917.463,VALID,0,VALID,100,VALID,-0.0679233,VALID,18.9094,VALID,22,VALID,0,
2008-07-23, 01:13:00,VALID,917.469,VALID,0,VALID,100,VALID,-0.0509425,VALID,18.9126,VALID,22,VALID,0,
2008-07-23, 01:14:00,VALID,917.45,VALID,0,VALID,100,VALID,-0.0679233,VALID,18.8802,VALID,22,VALID,0,
2008-07-23, 01:15:00,VALID,917.442,VALID,0,VALID,100,VALID,-0.0509425,VALID,18.854,VALID,20,VALID,0,
2008-07-23, 01:16:00,VALID,917.411,VALID,0,VALID,100,VALID,-0.0679233,VALID,18.8637,VALID,16,VALID,0,
2008-07-23, 01:17:00,VALID,917.395,VALID,0,VALID,100,VALID,-0.0169808,VALID,18.9024,VALID,22,VALID,0.13205,
2008-07-23, 01:18:00,VALID,917.37,VALID,0,VALID,100,VALID,-0.0509425,VALID,18.8992,VALID,23,VALID,0,
2008-07-23, 01:19:00,VALID,917.344,VALID,0,VALID,100,VALID,-0.0679233,VALID,18.9092,VALID,23,VALID,0.0779433,
2008-07-23, 01:20:00,VALID,917.33,VALID,0,VALID,100,VALID,-0.0509425,VALID,18.9286,VALID,11,VALID,0.171094,
2008-07-23, 01:21:00,VALID,917.29,VALID,0,VALID,100,VALID,-0.0339617,VALID,18.9351,VALID,2,VALID,0.56435,
2008-07-23, 01:22:00,VALID,917.277,VALID,0,VALID,100,VALID,-0.0339617,VALID,18.9448,VALID,16,VALID,0.940358,
2008-07-23, 01:23:00,VALID,917.255,VALID,0,VALID,100,VALID,-0.0339617,VALID,18.9483,VALID,18,VALID,1.06008,
2008-07-23, 01:24:00,VALID,917.256,VALID,0,VALID,100,VALID,-0.0339617,VALID,18.9578,VALID,18,VALID,0.125182,
2008-07-23, 01:25:00,VALID,917.256,VALID,0,VALID,100,VALID,0,VALID,18.968,VALID,13,VALID,0,
2008-07-23, 01:26:00,VALID,917.237,VALID,0,VALID,100,VALID,-0.0849042,VALID,18.9688,VALID,274,VALID,0,
2008-07-23, 01:27:00,VALID,917.188,VALID,0,VALID,100,VALID,-0.135847,VALID,18.985,VALID,243,VALID,0.0520833,
2008-07-23, 01:28:00,VALID,917.151,VALID,0,VALID,100,VALID,-0.101885,VALID,18.9882,VALID,238,VALID,0,
2008-07-23, 01:29:00,VALID,917.136,VALID,0,VALID,100,VALID,-0.152827,VALID,19.0074,VALID,330,VALID,0.417773,
2008-07-23, 01:30:00,VALID,917.123,VALID,0,VALID,100,VALID,-0.101885,VALID,19.0047,VALID,13,VALID,0.324049,
2008-07-23, 01:31:00,VALID,917.1,VALID,0,VALID,100,VALID,-0.118866,VALID,19.0042,VALID,13,VALID,0,
2008-07-23, 01:32:00,VALID,917.099,VALID,0,VALID,100,VALID,-0.101885,VALID,19.0112,VALID,13,VALID,0,
2008-07-23, 01:33:00,VALID,917.072,VALID,0,VALID,100,VALID,-0.135847,VALID,18.9852,VALID,13,VALID,0.297602,
2008-07-23, 01:34:00,VALID,917.059,VALID,0,VALID,100,VALID,-0.135847,VALID,18.9847,VALID,31,VALID,0.0879836,
2008-07-23, 01:35:00,VALID,917.048,VALID,0,VALID,100,VALID,-0.135847,VALID,18.9882,VALID,43,VALID,0.443266,
2008-07-23, 01:36:00,VALID,917.015,VALID,0,VALID,100,VALID,-0.169808,VALID,18.985,VALID,28,VALID,0.877287,
2008-07-23, 01:37:00,VALID,916.992,VALID,0,VALID,100,VALID,-0.135847,VALID,18.9785,VALID,15,VALID,0,
2008-07-23, 01:38:00,VALID,916.993,VALID,0,VALID,100,VALID,-0.101885,VALID,18.9722,VALID,28,VALID,0,
2008-07-23, 01:39:00,VALID,916.983,VALID,0,VALID,100,VALID,-0.152827,VALID,18.9595,VALID,25,VALID,0.0561756,
2008-07-23, 01:40:00,VALID,916.972,VALID,0,VALID,100,VALID,-0.135847,VALID,18.966,VALID,21,VALID,0.629092,
2008-07-23, 01:41:00,VALID,916.971,VALID,0,VALID,100,VALID,-0.0339617,VALID,18.9578,VALID,17,VALID,0.373365,
2008-07-23, 01:42:00,VALID,916.936,VALID,0,VALID,100,VALID,-0.0169808,VALID,18.9319,VALID,6,VALID,0.303779,
2008-07-23, 01:43:00,VALID,916.925,VALID,0,VALID,100,VALID,-0.0509425,VALID,18.8992,VALID,18,VALID,0.283482,
2008-07-23, 01:44:00,VALID,916.908,VALID,0,VALID,100,VALID,-0.0339617,VALID,18.9027,VALID,20,VALID,0.0274306,
2008-07-23, 01:45:00,VALID,916.893,VALID,0,VALID,100,VALID,-0.0509425,VALID,18.8989,VALID,13,VALID,0,
2008-07-23, 01:46:00,VALID,916.879,VALID,0,VALID,100,VALID,0,VALID,18.9057,VALID,13,VALID,0,
2008-07-23, 01:47:00,VALID,916.86,VALID,0,VALID,100,VALID,-0.0509425,VALID,18.9186,VALID,356,VALID,0.259341,
2008-07-23, 01:48:00,VALID,916.827,VALID,0,VALID,100,VALID,-0.0849042,VALID,18.9122,VALID,347,VALID,0,
2008-07-23, 01:49:00,VALID,916.818,VALID,0,VALID,100,VALID,-0.0679233,VALID,18.9284,VALID,28,VALID,0.201265,
2008-07-23, 01:50:00,VALID,916.8,VALID,0,VALID,100,VALID,-0.0339617,VALID,18.9411,VALID,18,VALID,0.00327035,
2008-07-23, 01:51:00,VALID,916.79,VALID,0,VALID,100,VALID,0,VALID,18.9546,VALID,18,VALID,0,
2008-07-23, 01:52:00,VALID,916.788,VALID,0,VALID,100,VALID,-0.0679233,VALID,18.9773,VALID,18,VALID,0,
2008-07-23, 01:53:00,VALID,916.764,VALID,0,VALID,100,VALID,-0.0339617,VALID,18.9773,VALID,21,VALID,0,
2008-07-23, 01:54:00,VALID,916.746,VALID,0,VALID,100,VALID,0,VALID,18.9838,VALID,30,VALID,0.510298,
2008-07-23, 01:55:00,VALID,916.716,VALID,0,VALID,100,VALID,-0.0169808,VALID,18.987,VALID,20,VALID,1.16629,
2008-07-23, 01:56:00,VALID,916.706,VALID,0,VALID,100,VALID,-0.152827,VALID,18.9525,VALID,21,VALID,0.981712,
2008-07-23, 01:57:00,VALID,916.691,VALID,0,VALID,100,VALID,-0.169808,VALID,18.9528,VALID,21,VALID,0.0380609,
2008-07-23, 01:58:00,VALID,916.678,VALID,0,VALID,100,VALID,-0.152827,VALID,18.95,VALID,21,VALID,0,
2008-07-23, 01:59:00,VALID,916.685,VALID,0,VALID,100,VALID,-0.152827,VALID,18.9301,VALID,32,VALID,0.544331,
2008-07-23, 02:00:00,VALID,916.677,VALID,0,VALID,100,VALID,-0.152827,VALID,18.8944,VALID,7,VALID,0.493389,
2008-07-23, 02:01:00,VALID,916.685,VALID,0,VALID,100,VALID,-0.186789,VALID,18.8784,VALID,26,VALID,0.567294,
2008-07-23, 02:02:00,VALID,916.687,VALID,0,VALID,100,VALID,-0.135847,VALID,18.8619,VALID,40,VALID,0.462028,
2008-07-23, 02:03:00,VALID,916.704,VALID,0,VALID,100,VALID,-0.152827,VALID,18.8617,VALID,40,VALID,0.553819,
2008-07-23, 02:04:00,VALID,916.721,VALID,0,VALID,100,VALID,-0.118866,VALID,18.8684,VALID,35,VALID,0.816497,
2008-07-23, 02:05:00,VALID,916.746,VALID,0,VALID,100,VALID,-0.152827,VALID,18.8814,VALID,38,VALID,0.817645,
2008-07-23, 02:06:00,VALID,916.763,VALID,0,VALID,100,VALID,-0.169808,VALID,18.8684,VALID,31,VALID,1.18047,
2008-07-23, 02:07:00,VALID,916.779,VALID,0,VALID,100,VALID,-0.135847,VALID,18.839,VALID,22,VALID,0.793648,
2008-07-23, 02:08:00,VALID,916.789,VALID,0,VALID,100,VALID,-0.169808,VALID,18.8457,VALID,32,VALID,0.822917,
2008-07-23, 02:09:00,VALID,916.787,VALID,0,VALID,100,VALID,-0.169808,VALID,18.8362,VALID,26,VALID,1.00799,
2008-07-23, 02:10:00,VALID,916.79,VALID,0,VALID,100,VALID,-0.169808,VALID,18.8327,VALID,28,VALID,1.27009,
2008-07-23, 02:11:00,VALID,916.789,VALID,0,VALID,100,VALID,-0.135847,VALID,18.8193,VALID,7,VALID,0.969618,
2008-07-23, 02:12:00,VALID,916.779,VALID,0,VALID,100,VALID,-0.169808,VALID,18.8198,VALID,10,VALID,0.97691,
2008-07-23, 02:13:00,VALID,916.773,VALID,0,VALID,100,VALID,-0.169808,VALID,18.81,VALID,351,VALID,0.747514,
2008-07-23, 02:14:00,VALID,916.793,VALID,0,VALID,100,VALID,-0.186789,VALID,18.8035,VALID,312,VALID,0.231712,
2008-07-23, 02:15:00,VALID,916.803,VALID,0,VALID,100,VALID,-0.135847,VALID,18.807,VALID,288,VALID,0,
2008-07-23, 02:16:00,VALID,916.8,VALID,0,VALID,100,VALID,-0.169808,VALID,18.7968,VALID,274,VALID,0,
2008-07-23, 02:17:00,VALID,916.791,VALID,0,VALID,100,VALID,-0.152827,VALID,18.7968,VALID,360,VALID,0.574124,
2008-07-23, 02:18:00,VALID,916.776,VALID,0,VALID,100,VALID,-0.152827,VALID,18.8,VALID,15,VALID,0.0830078,
2008-07-23, 02:19:00,VALID,916.767,VALID,0,VALID,100,VALID,-0.152827,VALID,18.8198,VALID,15,VALID,0,
2008-07-23, 02:20:00,VALID,916.743,VALID,0,VALID,100,VALID,-0.135847,VALID,18.8133,VALID,15,VALID,0,
2008-07-23, 02:21:00,VALID,916.736,VALID,0,VALID,100,VALID,-0.186789,VALID,18.8003,VALID,15,VALID,0,
2008-07-23, 02:22:00,VALID,916.745,VALID,0,VALID,100,VALID,-0.135847,VALID,18.8133,VALID,15,VALID,0,
2008-07-23, 02:23:00,VALID,916.752,VALID,0,VALID,100,VALID,-0.20377,VALID,18.8232,VALID,15,VALID,0,
2008-07-23, 02:24:00,VALID,916.753,VALID,0,VALID,100,VALID,-0.135847,VALID,18.8425,VALID,15,VALID,0,
2008-07-23, 02:25:00,VALID,916.746,VALID,0,VALID,100,VALID,-0.169808,VALID,18.8395,VALID,15,VALID,0,
2008-07-23, 02:26:00,VALID,916.714,VALID,0,VALID,100,VALID,-0.0509425,VALID,18.8345,VALID,15,VALID,0,
2008-07-23, 02:27:00,VALID,916.692,VALID,0,VALID,100,VALID,-0.0339617,VALID,18.8408,VALID,21,VALID,0,
2008-07-23, 02:28:00,VALID,916.68,VALID,0,VALID,100,VALID,-0.0339617,VALID,18.8216,VALID,21,VALID,0,
2008-07-23, 02:29:00,VALID,916.682,VALID,0,VALID,100,VALID,-0.0339617,VALID,18.8084,VALID,21,VALID,0,
2008-07-23, 02:30:00,VALID,916.674,VALID,0,VALID,100,VALID,-0.0509425,VALID,18.8118,VALID,354,VALID,0,
2008-07-23, 02:31:00,VALID,916.666,VALID,0,VALID,100,VALID,-0.0679233,VALID,18.8183,VALID,293,VALID,0,
2008-07-23, 02:32:00,VALID,916.643,VALID,0,VALID,100,VALID,-0.0679233,VALID,18.8216,VALID,293,VALID,0,
2008-07-23, 02:33:00,VALID,916.628,VALID,0,VALID,100,VALID,-0.0509425,VALID,18.8311,VALID,293,VALID,0,
2008-07-23, 02:34:00,VALID,916.612,VALID,0,VALID,100,VALID,0,VALID,18.8378,VALID,293,VALID,0,
2008-07-23, 02:35:00,VALID,916.621,VALID,0,VALID,100,VALID,-0.0509425,VALID,18.8246,VALID,293,VALID,0,
2008-07-23, 02:36:00,VALID,916.628,VALID,0,VALID,100,VALID,-0.0509425,VALID,18.8246,VALID,293,VALID,0,
2008-07-23, 02:37:00,VALID,916.655,VALID,0,VALID,100,VALID,-0.0169808,VALID,18.8216,VALID,347,VALID,0.0550509,
2008-07-23, 02:38:00,VALID,916.684,VALID,0,VALID,100,VALID,-0.0339617,VALID,18.7852,VALID,17,VALID,0,
2008-07-23, 02:39:00,VALID,916.716,VALID,0,VALID,100,VALID,-0.0509425,VALID,18.7729,VALID,17,VALID,0,
2008-07-23, 02:40:00,VALID,916.755,VALID,0,VALID,100,VALID,-0.0509425,VALID,18.7662,VALID,17,VALID,0,
2008-07-23, 02:41:00,VALID,916.77,VALID,0,VALID,100,VALID,-0.118866,VALID,18.7843,VALID,309,VALID,0.352865,
2008-07-23, 02:42:00,VALID,916.773,VALID,0,VALID,100,VALID,-0.186789,VALID,18.7584,VALID,337,VALID,0.180432,
2008-07-23, 02:43:00,VALID,916.795,VALID,0,VALID,100,VALID,-0.152827,VALID,18.7648,VALID,341,VALID,0.0499637,
2008-07-23, 02:44:00,VALID,916.806,VALID,0,VALID,100,VALID,-0.152827,VALID,18.7614,VALID,342,VALID,0,
2008-07-23, 02:45:00,VALID,916.823,VALID,0,VALID,100,VALID,-0.169808,VALID,18.7746,VALID,342,VALID,0,
2008-07-23, 02:46:00,VALID,916.817,VALID,0,VALID,100,VALID,-0.169808,VALID,18.7711,VALID,342,VALID,0,
2008-07-23, 02:47:00,VALID,916.805,VALID,0,VALID,100,VALID,-0.135847,VALID,18.7743,VALID,342,VALID,0,
2008-07-23, 02:48:00,VALID,916.801,VALID,0,VALID,100,VALID,-0.118866,VALID,18.7711,VALID,321,VALID,0.0282315,
2008-07-23, 02:49:00,VALID,916.79,VALID,0,VALID,100,VALID,-0.152827,VALID,18.7776,VALID,274,VALID,0.130632,
2008-07-23, 02:50:00,VALID,916.776,VALID,0,VALID,100,VALID,-0.152827,VALID,18.7611,VALID,271,VALID,0,
2008-07-23, 02:51:00,VALID,916.773,VALID,0,VALID,100,VALID,-0.118866,VALID,18.7678,VALID,271,VALID,0,
2008-07-23, 02:52:00,VALID,916.774,VALID,0,VALID,100,VALID,-0.152827,VALID,18.7546,VALID,271,VALID,0,
2008-07-23, 02:53:00,VALID,916.758,VALID,0,VALID,100,VALID,-0.152827,VALID,18.7479,VALID,271,VALID,0,
2008-07-23, 02:54:00,VALID,916.738,VALID,0,VALID,100,VALID,-0.135847,VALID,18.7549,VALID,269,VALID,0,
2008-07-23, 02:55:00,VALID,916.72,VALID,0,VALID,100,VALID,-0.118866,VALID,18.7581,VALID,262,VALID,0,
2008-07-23, 02:56:00,VALID,916.694,VALID,0,VALID,100,VALID,-0.169808,VALID,18.7549,VALID,257,VALID,0,
2008-07-23, 02:57:00,VALID,916.683,VALID,0,VALID,100,VALID,-0.186789,VALID,18.7546,VALID,230,VALID,0.0641352,
2008-07-23, 02:58:00,VALID,916.671,VALID,0,VALID,100,VALID,-0.135847,VALID,18.7519,VALID,226,VALID,0.00508721,
2008-07-23, 02:59:00,VALID,916.674,VALID,0,VALID,100,VALID,-0.118866,VALID,18.7484,VALID,248,VALID,0,
2008-07-23, 03:00:00,VALID,916.677,VALID,0,VALID,100,VALID,-0.118866,VALID,18.7252,VALID,254,VALID,0,
2008-07-23, 03:01:00,VALID,916.683,VALID,0,VALID,100,VALID,-0.118866,VALID,18.7189,VALID,253,VALID,0,
2008-07-23, 03:02:00,VALID,916.67,VALID,0,VALID,100,VALID,-0.135847,VALID,18.7189,VALID,253,VALID,0,
2008-07-23, 03:03:00,VALID,916.681,VALID,0,VALID,100,VALID,-0.169808,VALID,18.7289,VALID,253,VALID,0,
2008-07-23, 03:04:00,VALID,916.679,VALID,0,VALID,100,VALID,-0.101885,VALID,18.7122,VALID,253,VALID,0,
2008-07-23, 03:05:00,VALID,916.671,VALID,0,VALID,100,VALID,-0.101885,VALID,18.6985,VALID,253,VALID,0,
2008-07-23, 03:06:00,VALID,916.655,VALID,0,VALID,100,VALID,-0.135847,VALID,18.706,VALID,253,VALID,0,
2008-07-23, 03:07:00,VALID,916.627,VALID,0,VALID,100,VALID,-0.135847,VALID,18.6895,VALID,255,VALID,0,
2008-07-23, 03:08:00,VALID,916.617,VALID,0,VALID,100,VALID,-0.135847,VALID,18.6828,VALID,263,VALID,0,
2008-07-23, 03:09:00,VALID,916.599,VALID,0,VALID,100,VALID,-0.152827,VALID,18.6865,VALID,263,VALID,0,
2008-07-23, 03:10:00,VALID,916.576,VALID,0,VALID,100,VALID,-0.101885,VALID,18.6928,VALID,263,VALID,0,
2008-07-23, 03:11:00,VALID,916.561,VALID,0,VALID,100,VALID,-0.118866,VALID,18.6995,VALID,263,VALID,0,
2008-07-23, 03:12:00,VALID,916.539,VALID,0,VALID,100,VALID,-0.118866,VALID,18.6995,VALID,263,VALID,0,
2008-07-23, 03:13:00,VALID,916.523,VALID,0,VALID,100,VALID,-0.118866,VALID,18.6995,VALID,263,VALID,0,
2008-07-23, 03:14:00,VALID,916.507,VALID,0,VALID,100,VALID,-0.152827,VALID,18.706,VALID,263,VALID,0,
2008-07-23, 03:15:00,VALID,916.495,VALID,0,VALID,100,VALID,-0.152827,VALID,18.7125,VALID,263,VALID,0,
2008-07-23, 03:16:00,VALID,916.467,VALID,0,VALID,100,VALID,-0.101885,VALID,18.7287,VALID,263,VALID,0,
2008-07-23, 03:17:00,VALID,916.462,VALID,0,VALID,100,VALID,-0.101885,VALID,18.722,VALID,263,VALID,0,
2008-07-23, 03:18:00,VALID,916.457,VALID,0,VALID,100,VALID,-0.101885,VALID,18.7055,VALID,263,VALID,0,
2008-07-23, 03:19:00,VALID,916.45,VALID,0,VALID,100,VALID,-0.118866,VALID,18.6965,VALID,263,VALID,0,
2008-07-23, 03:20:00,VALID,916.434,VALID,0,VALID,100,VALID,-0.135847,VALID,18.6932,VALID,263,VALID,0,
2008-07-23, 03:21:00,VALID,916.426,VALID,0,VALID,100,VALID,-0.169808,VALID,18.6763,VALID,263,VALID,0,
2008-07-23, 03:22:00,VALID,916.412,VALID,0,VALID,100,VALID,-0.186789,VALID,18.6833,VALID,263,VALID,0,
2008-07-23, 03:23:00,VALID,916.414,VALID,0,VALID,100,VALID,-0.152827,VALID,18.693,VALID,263,VALID,0.874455,
2008-07-23, 03:24:00,VALID,916.387,VALID,0,VALID,100,VALID,-0.169808,VALID,18.6995,VALID,254,VALID,0.812863,
2008-07-23, 03:25:00,VALID,916.368,VALID,0,VALID,100,VALID,-0.118866,VALID,18.7152,VALID,269,VALID,0.316034,
2008-07-23, 03:26:00,VALID,916.37,VALID,0,VALID,100,VALID,-0.135847,VALID,18.722,VALID,243,VALID,0.223292,
2008-07-23, 03:27:00,VALID,916.388,VALID,0,VALID,100,VALID,-0.152827,VALID,18.7187,VALID,243,VALID,0,
2008-07-23, 03:28:00,VALID,916.404,VALID,0,VALID,100,VALID,-0.152827,VALID,18.7386,VALID,243,VALID,0,
2008-07-23, 03:29:00,VALID,916.409,VALID,0,VALID,100,VALID,-0.101885,VALID,18.7312,VALID,270,VALID,0.122796,
2008-07-23, 03:30:00,VALID,916.449,VALID,0,VALID,100,VALID,-0.118866,VALID,18.6731,VALID,26,VALID,0.842842,
2008-07-23, 03:31:00,VALID,916.509,VALID,0,VALID,100,VALID,-0.152827,VALID,18.6314,VALID,30,VALID,0.179878,
2008-07-23, 03:32:00,VALID,916.54,VALID,0,VALID,100,VALID,-0.169808,VALID,18.6281,VALID,31,VALID,0,
2008-07-23, 03:33:00,VALID,916.565,VALID,0,VALID,100,VALID,-0.118866,VALID,18.6371,VALID,40,VALID,0,
2008-07-23, 03:34:00,VALID,916.594,VALID,0,VALID,100,VALID,-0.135847,VALID,18.6409,VALID,50,VALID,0.748611,
2008-07-23, 03:35:00,VALID,916.586,VALID,0,VALID,100,VALID,-0.118866,VALID,18.6214,VALID,51,VALID,0.678385,
2008-07-23, 03:36:00,VALID,916.594,VALID,0,VALID,100,VALID,-0.152827,VALID,18.6473,VALID,51,VALID,0.0528706,
2008-07-23, 03:37:00,VALID,916.581,VALID,0,VALID,100,VALID,-0.101885,VALID,18.6531,VALID,51,VALID,0,
2008-07-23, 03:38:00,VALID,916.547,VALID,0,VALID,100,VALID,-0.101885,VALID,18.6571,VALID,45,VALID,0.12314,
2008-07-23, 03:39:00,VALID,916.533,VALID,0,VALID,100,VALID,-0.101885,VALID,18.6798,VALID,14,VALID,0.267113,
2008-07-23, 03:40:00,VALID,916.512,VALID,0,VALID,100,VALID,-0.152827,VALID,18.6805,VALID,7,VALID,0,
2008-07-23, 03:41:00,VALID,916.499,VALID,0,VALID,100,VALID,-0.169808,VALID,18.6673,VALID,359,VALID,0,
2008-07-23, 03:42:00,VALID,916.5,VALID,0,VALID,100,VALID,-0.152827,VALID,18.6673,VALID,8,VALID,0,
2008-07-23, 03:43:00,VALID,916.496,VALID,0,VALID,100,VALID,-0.118866,VALID,18.6703,VALID,24,VALID,0.330357,
2008-07-23, 03:44:00,VALID,916.477,VALID,0,VALID,100,VALID,-0.152827,VALID,18.6703,VALID,30,VALID,0.345022,
2008-07-23, 03:45:00,VALID,916.456,VALID,0,VALID,100,VALID,-0.152827,VALID,18.6666,VALID,38,VALID,0.373326,
2008-07-23, 03:46:00,VALID,916.433,VALID,0,VALID,100,VALID,-0.135847,VALID,18.6504,VALID,30,VALID,0.999628,